Theta_e
342 344 347 347 347 347 348 348 347 346 346 347 346 346 346 345 345 344 344 343 342 342 342 342 340 340 339 338 337 336 335 334 331 326 324 322 322 322 324 325 325 326 325 325 325 325 325 323 322 319 317 315
339 342 344 345 344 344 345 346 347 346 346 346 346 344 344 342 342 343 344 343 342 342 341 341 340 339 337 337 336 336 335 333 330 326 322 320 320 320 321 323 323 323 323 323 323 322 320 319 317 315 313 308
336 335 340 341 341 341 343 345 344 344 343 342 343 342 340 338 337 336 337 339 340 341 338 338 338 339 338 337 336 335 334 332 329 326 323 321 319 319 320 321 322 322 322 322 321 320 317 314 312 310 303 300
339 332 332 337 337 338 340 341 341 341 338 336 335 335 333 330 331 330 332 329 333 333 337 335 334 337 337 337 336 335 334 333 330 328 326 323 320 319 319 319 319 320 320 321 320 318 316 312 307 299 297 298
338 334 329 331 331 333 337 337 337 337 329 326 324 327 323 325 333 334 332 333 333 326 331 326 329 335 337 337 336 335 334 333 331 329 327 325 322 320 319 317 316 317 320 320 318 315 312 307 300 297 296 297
339 335 334 337 336 336 334 331 327 330 333 330 331 322 327 334 333 334 333 332 331 330 328 324 325 330 335 337 335 335 334 333 332 330 328 326 324 323 321 316 304 304 311 314 315 311 307 301 299 298 296 296
339 337 337 336 337 336 331 331 333 335 332 334 332 331 333 333 335 335 333 332 330 330 323 326 324 329 332 334 332 334 335 333 333 332 331 329 327 324 319 309 305 303 303 303 307 304 300 298 299 298 297 296
339 339 337 336 337 337 336 333 333 333 334 334 333 333 335 336 335 335 334 328 324 328 328 325 324 327 328 329 328 329 330 331 333 333 331 328 324 319 313 310 307 307 306 304 304 301 298 298 299 299 297 295
338 339 337 336 336 336 335 334 335 334 334 334 334 334 336 336 335 334 334 331 330 331 330 330 330 329 330 327 323 324 325 325 321 320 317 317 314 312 312 310 309 309 308 307 306 303 300 299 299 299 299 296
330 337 338 336 336 337 336 336 335 334 334 334 335 334 332 331 330 331 330 332 332 330 331 331 330 330 330 325 323 326 327 323 319 318 318 316 314 312 312 310 309 307 309 309 307 305 303 301 299 299 298 298
324 334 336 338 337 337 336 336 334 333 333 333 333 333 330 330 329 329 329 330 331 330 332 332 331 331 330 328 326 324 326 321 318 321 319 316 314 312 311 310 309 308 307 308 308 306 304 303 302 301 299 299
328 330 333 333 333 334 330 331 330 330 330 330 330 329 329 328 329 330 329 329 330 330 331 331 331 330 330 328 326 325 325 323 320 320 319 318 316 314 313 312 310 309 309 308 308 307 306 304 303 303 302 301
328 330 330 330 330 328 326 327 327 327 328 327 327 326 326 327 327 329 329 328 328 329 329 329 328 328 328 327 325 326 325 325 323 321 319 318 316 316 315 313 311 309 309 310 309 308 307 306 305 304 303 302
326 327 327 326 326 325 325 325 325 325 324 325 325 324 324 324 325 325 326 325 325 325 324 324 324 323 324 324 323 324 323 322 321 319 319 318 317 317 316 315 313 312 312 310 309 308 308 307 306 304 303 301
323 324 323 323 323 323 322 321 319 318 319 320 323 323 322 321 321 323 323 323 322 322 322 321 321 321 321 321 320 320 319 319 318 318 318 318 317 317 315 314 315 314 311 310 311 309 308 307 306 305 303 302
321 320 319 319 318 317 317 316 315 314 314 313 316 320 321 320 321 321 321 321 320 320 319 319 318 319 319 319 319 319 318 317 317 316 315 314 314 313 312 311 312 311 311 311 311 311 310 308 307 305 303 302
316 315 314 313 313 313 314 313 313 312 311 311 313 315 319 319 319 319 319 318 318 317 317 316 316 315 315 316 316 316 315 315 314 312 310 309 309 308 307 307 308 309 309 310 310 311 311 309 305 303 302 302
312 311 310 310 310 309 309 309 309 309 310 310 310 312 313 316 316 316 315 315 314 314 314 313 313 313 313 314 313 312 311 309 308 307 306 305 304 303 303 303 304 306 307 308 310 310 309 306 303 302 301 300
309 309 309 308 308 307 307 306 306 307 308 309 309 309 308 310 311 312 313 313 312 311 311 310 310 309 309 309 308 307 306 304 303 302 301 302 301 299 299 299 300 303 304 306 307 307 306 303 302 301 300 299
308 307 307 306 306 305 305 304 304 304 305 306 308 308 307 307 307 308 309 309 309 307 307 307 306 307 308 307 306 305 303 301 299 298 297 297 298 296 295 297 298 299 301 304 304 304 302 301 300 298 297 295
306 306 304 303 303 302 302 301 301 302 303 304 305 305 306 306 306 306 306 306 305 304 302 302 302 303 304 304 303 302 300 298 297 295 294 292 293 294 293 294 295 297 298 300 300 299 299 299 297 295 293 292
303 302 301 301 300 299 298 298 298 299 300 301 302 303 303 304 304 303 303 303 302 301 300 300 300 300 301 300 299 297 296 294 293 292 291 290 290 290 290 291 293 296 297 297 296 296 296 296 295 294 293 291
301 300 299 298 298 297 296 296 296 297 297 298 299 300 301 301 301 301 301 300 300 299 297 296 296 296 296 297 296 295 294 293 291 290 289 288 287 288 287 288 290 294 296 295 295 295 295 295 294 294 294 292
300 299 297 296 296 295 294 294 294 294 294 296 297 297 298 298 298 297 297 296 296 295 294 293 293 293 293 293 294 293 292 291 291 289 288 287 286 287 288 288 288 291 294 293 292 292 292 292 292 292 292 292
299 297 296 296 294 293 292 292 292 291 291 293 294 294 295 294 293 293 292 292 293 292 292 291 291 291 290 290 291 290 289 289 289 290 288 287 287 286 287 286 286 286 290 293 291 290 289 289 290 290 289 289
301 300 298 295 293 292 291 290 290 289 289 290 292 291 290 290 290 290 290 290 290 290 290 289 289 289 288 289 288 288 287 287 288 287 286 286 285 285 285 283 284 286 288 289 288 288 287 288 289 288 287 287
298 296 295 294 292 291 288 288 288 288 288 289 288 288 288 289 289 289 288 288 288 288 288 288 287 287 287 287 288 287 286 285 285 285 285 284 284 283 284 284 285 284 285 286 285 287 288 286 284 288 285 286
295 293 292 291 291 290 288 287 288 287 287 288 287 287 287 287 287 287 287 287 287 287 286 286 286 286 286 286 286 286 285 284 284 284 284 284 284 284 282 281 282 284 284 284 286 288 285 284 283 282 280 282
293 291 289 289 289 289 287 287 287 286 286 286 287 286 286 285 285 286 286 286 286 286 285 285 285 285 285 285 285 286 285 284 284 284 284 284 283 283 282 281 280 283 284 283 284 284 280 279 278 280 278 278
292 290 288 288 287 286 286 285 285 285 285 285 284 284 284 285 284 285 285 285 285 285 285 285 285 285 285 285 285 286 285 285 285 284 284 284 283 282 282 282 281 280 283 283 283 283 283 281 278 278 278 277
292 291 290 290 289 288 287 285 283 283 284 284 284 284 284 283 284 284 284 284 284 284 285 285 285 285 285 285 285 285 285 284 284 284 284 284 283 283 284 282 280 280 280 280 282 282 282 282 281 279 276 277
Wind_Speed
8 8 7 8 8 8 8 8 9 8 7 8 11 11 11 10 9 9 11 12 12 10 10 12 11 11 11 11 11 11 10 11 12 12 11 11 11 12 12 13 14 14 14 14 14 13 13 12 12 10 8 6
8 8 8 8 7 7 7 8 8 7 7 8 9 8 8 8 8 9 9 10 11 11 10 11 11 12 11 10 10 10 10 11 12 12 12 11 12 12 13 14 14 14 14 14 14 13 13 12 12 11 9 6
4 9 8 9 8 7 6 7 8 8 8 8 8 8 8 8 7 7 9 9 9 8 8 9 11 11 10 10 10 10 10 10 12 12 12 12 13 13 13 14 15 14 14 14 14 13 12 12 11 11 8 6
5 6 9 9 10 10 8 8 8 8 7 8 8 8 8 8 6 6 6 8 8 9 8 9 8 10 8 10 9 9 10 10 10 11 12 12 12 12 12 13 13 13 13 13 13 12 12 11 11 8 7 6
5 6 8 7 9 10 10 9 9 8 9 8 7 7 7 7 5 4 4 6 5 8 6 8 11 10 8 9 8 9 9 9 9 10 10 11 12 11 11 10 10 10 11 11 12 11 10 10 8 7 7 7
4 4 6 6 5 5 4 4 8 8 6 6 4 6 6 4 4 4 4 5 6 5 6 6 10 10 8 8 7 7 9 9 9 9 9 9 10 9 8 9 6 5 8 10 9 9 10 8 6 6 7 7
5 6 4 6 6 5 6 4 5 5 6 5 4 4 4 3 3 4 4 4 5 5 7 7 9 10 8 8 7 7 8 8 9 9 9 9 8 7 7 6 5 5 5 6 9 9 7 6 6 6 7 7
6 5 5 5 5 6 5 4 4 4 5 4 4 4 3 4 4 4 4 4 8 7 5 4 6 10 9 8 7 7 5 6 7 9 9 8 8 6 5 5 5 6 5 6 5 6 6 6 5 6 6 7
6 6 5 5 4 4 4 4 3 3 3 5 5 4 4 4 5 4 4 5 4 4 4 4 4 5 4 3 2 4 3 4 4 4 5 5 5 4 5 5 5 5 6 6 6 6 6 6 5 5 5 6
2 4 6 5 5 4 4 4 3 3 3 4 5 4 3 4 4 4 4 6 5 4 4 5 4 4 4 3 3 1 3 3 3 4 5 4 4 4 5 5 5 4 5 6 6 6 6 6 6 6 6 6
2 4 4 5 4 5 4 4 4 4 4 4 3 4 4 5 4 4 4 4 5 5 4 5 4 4 4 4 3 1 3 3 2 4 5 4 4 4 5 6 5 4 5 5 6 5 5 6 6 6 6 6
4 4 4 4 5 5 5 6 5 4 5 4 5 4 4 4 4 4 5 4 4 4 4 5 4 4 4 4 3 2 3 4 3 5 5 4 4 4 5 6 5 5 4 5 5 5 5 6 7 6 6 7
4 5 6 5 6 6 5 7 5 6 5 5 5 5 5 4 5 5 4 4 3 3 3 3 4 4 3 3 3 3 3 3 5 5 5 5 5 4 6 5 5 5 4 5 5 6 6 6 7 7 7 7
5 5 7 6 6 6 6 7 5 7 6 5 5 6 5 6 5 5 5 5 4 6 5 5 5 5 4 5 4 4 4 3 5 5 5 5 5 5 6 6 5 5 5 6 5 5 6 6 7 7 7 7
5 6 7 6 5 6 7 6 7 7 6 5 6 6 6 6 6 5 6 6 6 6 6 6 6 5 5 6 6 5 5 4 6 5 6 5 5 5 6 6 5 5 6 5 6 5 6 6 7 7 7 7
6 7 7 7 6 6 6 7 8 7 6 6 6 5 5 6 6 6 6 7 6 7 7 6 7 5 6 6 6 5 5 7 6 7 6 7 7 6 6 6 6 5 5 6 5 5 6 6 8 7 7 8
6 7 7 7 7 6 6 6 7 7 6 6 5 5 5 7 7 6 7 7 7 7 7 7 7 7 7 6 6 6 7 8 7 6 6 7 5 6 6 7 5 4 6 6 5 6 6 7 8 8 8 8
7 8 7 6 7 6 6 4 7 7 6 6 5 6 6 7 7 7 7 8 8 7 8 8 8 7 7 6 7 7 6 8 6 6 7 5 6 7 7 6 5 5 6 5 6 7 7 8 8 7 8 8
8 7 7 7 7 6 5 5 7 6 5 5 5 6 6 6 7 7 8 7 8 7 8 8 7 7 7 6 6 7 6 7 7 7 7 5 7 6 6 5 5 5 5 6 7 7 7 8 7 8 8 8
9 7 7 7 6 6 6 7 7 6 5 5 5 6 6 5 6 7 7 7 8 8 7 7 8 6 6 7 7 7 6 7 7 7 8 7 5 7 5 6 7 5 6 6 7 6 8 7 7 7 7 8
9 8 9 7 6 6 6 7 7 6 5 5 6 6 6 6 7 7 7 8 8 9 8 7 8 6 7 6 8 8 7 8 6 7 8 8 6 5 6 7 6 7 7 8 7 8 9 8 8 8 7 7
8 8 9 7 6 7 6 8 6 5 5 6 6 6 6 6 7 7 7 8 8 9 8 7 8 7 7 7 9 9 8 7 6 7 8 9 6 5 6 7 7 7 7 7 8 8 8 7 7 7 7 7
9 10 9 7 7 6 8 8 5 5 7 5 6 6 6 7 7 7 7 8 7 9 8 8 8 8 6 7 8 8 8 8 8 7 6 8 7 7 7 6 5 6 8 9 8 9 8 7 7 6 6 7
9 8 7 8 7 8 8 7 6 7 7 5 6 6 6 6 7 6 7 7 7 9 8 8 8 8 6 6 7 9 9 7 6 6 8 7 6 8 8 8 6 5 9 9 10 9 8 7 7 7 7 7
9 10 8 6 6 8 5 5 6 6 5 6 6 6 7 7 6 6 7 6 7 9 9 8 7 8 7 6 8 9 8 5 6 5 7 7 7 9 10 8 6 4 3 10 8 7 7 7 5 6 7 7
8 6 7 10 7 9 6 5 6 7 6 6 6 7 6 6 5 6 7 6 7 8 9 9 8 8 7 8 8 8 6 6 6 6 5 5 10 7 10 6 6 5 1 4 6 7 3 4 3 4 7 8
8 8 7 9 8 6 8 4 4 5 5 5 7 6 6 5 5 6 7 6 6 8 8 9 9 8 7 6 7 9 8 7 8 6 6 6 8 8 5 7 7 8 3 4 1 2 6 0 1 1 4 3
8 10 11 10 10 8 6 8 6 7 6 7 8 8 6 6 5 5 7 6 6 8 8 8 9 7 7 7 6 8 9 8 7 6 6 6 6 7 8 4 7 6 7 4 4 2 1 1 2 1 2 3
11 12 12 11 11 11 11 7 7 8 7 6 6 6 7 5 4 5 6 6 7 8 9 7 8 8 7 8 7 7 9 8 7 6 5 6 7 7 8 6 3 7 7 8 3 5 3 2 2 1 1 3
10 11 13 12 12 10 9 9 7 9 10 7 6 6 3 5 4 4 6 6 7 7 7 8 8 8 9 8 7 7 8 7 7 7 8 6 6 7 5 9 7 5 6 7 8 6 3 1 3 2 1 2
9 11 11 12 11 11 11 12 3 3 5 8 6 5 6 5 4 4 7 6 6 7 7 7 7 8 8 8 7 6 8 9 8 6 5 4 6 5 4 6 7 6 3 4 7 6 6 8 5 2 3 1
Wind_Direction
158 159 156 152 151 152 151 149 141 137 133 136 138 139 135 130 127 128 130 130 129 125 123 121 115 111 105 95 89 87 84 80 77 73 70 68 64 62 63 63 59 55 53 52 51 55 57 58 56 52 56 54
152 158 156 156 149 150 146 145 143 137 136 138 137 135 131 127 129 130 133 135 134 130 128 125 122 114 107 99 94 91 88 85 81 78 72 67 63 62 63 60 55 52 51 49 50 54 56 55 52 46 47 48
147 151 155 151 149 127 141 146 144 143 144 139 136 133 134 132 130 129 132 138 136 129 123 123 123 118 113 109 103 100 94 90 85 83 77 69 65 64 63 58 54 52 48 47 46 48 50 49 45 41 42 40
154 161 157 153 146 142 163 157 151 144 133 131 129 129 126 126 125 121 122 125 127 134 121 113 121 123 121 119 112 109 104 97 94 88 84 77 70 66 61 57 54 52 52 49 51 51 50 45 44 41 38 37
161 161 152 150 154 160 167 164 152 129 122 120 124 131 131 135 139 130 130 133 136 132 128 128 130 131 132 123 115 113 111 106 102 98 93 87 78 68 55 44 42 39 46 49 55 58 58 55 51 45 45 41
156 148 155 144 142 143 136 148 138 134 138 137 124 136 141 150 153 145 143 140 148 144 140 136 138 136 136 127 122 119 117 115 108 104 100 95 87 75 62 61 56 49 45 47 56 60 64 62 60 52 51 48
166 163 132 155 153 146 150 155 145 138 140 143 139 149 155 144 165 152 147 151 158 151 151 140 144 140 139 133 132 132 124 122 113 103 97 89 84 79 79 76 80 74 65 57 56 61 62 69 64 61 56 54
160 164 151 153 153 151 138 141 162 156 149 134 147 156 166 167 164 164 158 154 145 137 133 132 144 144 146 142 138 135 125 107 99 91 84 79 84 84 85 92 86 82 75 71 69 69 71 70 72 68 67 64
172 166 162 163 160 153 152 149 151 140 152 146 141 160 175 175 172 169 161 141 150 130 121 126 137 140 136 124 127 125 98 90 77 83 81 72 78 90 94 85 78 77 68 62 63 64 69 74 66 67 60 64
220 183 164 169 162 139 138 139 135 128 137 136 148 151 142 142 145 144 131 147 129 122 138 140 142 150 140 137 152 115 100 91 99 79 77 92 99 92 84 79 74 65 76 71 60 60 58 69 65 62 62 62
184 184 169 163 159 148 140 123 110 109 103 100 110 113 123 130 124 127 142 116 135 139 159 147 153 155 146 144 151 64 110 104 80 91 94 78 60 55 73 69 57 55 53 65 68 60 62 61 66 60 59 56
107 136 119 112 111 105 114 108 99 95 81 83 72 63 73 94 106 122 112 116 142 146 146 146 150 147 141 143 122 128 102 108 86 81 79 77 59 57 55 67 64 59 51 60 67 67 62 67 67 66 62 60
90 111 107 103 103 102 98 91 87 84 74 77 74 56 55 65 93 92 95 99 106 112 96 95 101 112 121 116 106 103 76 105 105 89 78 72 74 66 67 68 64 67 52 58 62 74 65 69 72 71 66 64
96 112 101 98 95 99 90 89 89 84 71 68 77 65 59 68 75 77 86 86 77 96 84 80 70 72 81 85 58 66 78 56 82 91 85 75 71 67 62 61 54 64 53 44 39 52 70 68 73 72 72 65
104 104 101 98 92 87 88 93 88 70 66 60 67 75 73 75 74 84 81 83 84 79 82 76 74 67 74 73 68 63 75 64 79 81 78 76 72 71 73 65 55 66 66 52 44 45 61 70 74 70 69 69
106 97 99 94 88 85 86 86 82 80 71 67 60 67 83 82 79 82 80 83 83 87 80 76 72 57 64 68 69 68 71 73 65 73 72 69 65 65 73 70 54 49 66 56 51 60 63 73 75 72 69 69
104 96 90 94 91 90 89 86 92 85 75 74 71 66 82 87 85 82 90 85 85 85 81 79 79 70 63 61 63 72 72 73 68 67 68 63 66 60 63 61 49 51 57 57 49 62 66 78 75 76 74 68
104 99 96 93 93 90 93 90 96 94 91 88 85 84 80 90 92 96 95 98 92 91 90 83 79 84 78 71 74 74 72 75 71 69 63 59 62 49 53 57 40 55 59 53 56 63 74 78 80 78 73 68
100 100 103 95 90 87 79 85 88 89 85 86 86 86 76 87 100 101 101 105 106 97 99 97 91 81 83 87 81 78 68 79 71 71 63 46 66 56 50 56 48 51 62 61 66 73 76 74 78 75 76 68
102 99 96 88 88 88 79 80 76 70 70 76 83 82 81 71 80 85 90 93 98 94 87 92 89 81 83 85 82 77 72 72 72 74 69 49 57 78 51 58 51 40 62 67 70 62 69 71 72 75 71 69
99 102 92 81 82 78 77 77 71 68 72 77 78 78 83 76 78 79 84 89 92 98 94 93 92 85 87 88 89 83 76 71 70 74 76 55 43 67 83 65 65 55 62 70 63 63 68 68 73 68 66 64
107 94 88 86 80 80 75 76 69 69 74 82 79 84 84 86 87 88 91 92 96 96 92 90 93 90 85 90 87 84 77 72 66 67 74 78 51 55 75 66 70 78 75 74 74 68 72 70 70 67 65 63
94 93 87 83 88 77 78 71 54 65 47 61 77 80 86 88 87 88 90 91 95 99 95 89 85 86 79 86 90 88 82 74 69 70 67 86 78 61 64 78 69 88 92 82 77 74 68 73 71 69 66 63
110 102 103 105 95 76 67 70 70 49 42 29 75 70 78 80 84 82 87 88 90 93 95 93 88 88 80 82 89 86 81 75 74 86 81 63 79 79 65 51 50 57 90 82 79 82 70 63 73 69 72 66
134 127 111 79 90 99 80 84 82 69 58 63 54 70 74 77 81 85 88 88 96 97 95 92 94 92 80 81 83 85 85 90 86 76 85 89 59 72 73 41 15 14 51 103 80 67 76 61 43 73 70 65
131 131 138 135 129 115 101 93 94 93 66 70 66 62 63 71 77 83 86 90 94 94 100 101 93 88 92 88 87 89 94 81 71 68 62 87 75 46 77 58 16 350 64 36 124 119 88 70 53 62 65 61
134 123 119 120 126 121 106 55 76 88 86 76 77 63 58 64 73 84 82 86 94 98 95 98 97 93 93 88 101 94 76 71 65 59 65 61 102 90 57 79 31 25 37 135 128 101 88 23 99 273 19 15
112 112 105 92 105 92 93 123 101 86 78 76 77 68 59 52 67 77 89 86 92 94 90 95 98 100 93 89 86 98 93 79 74 66 64 72 67 100 80 52 39 28 35 88 122 69 126 182 119 344 334 4
122 112 98 100 92 101 98 78 93 93 71 69 81 85 64 54 57 80 89 87 85 92 95 92 99 100 97 93 85 90 93 86 84 75 70 70 72 63 111 83 95 35 35 49 42 141 102 34 39 181 249 11
133 128 127 130 129 128 121 118 125 126 131 120 103 102 96 62 55 80 86 83 88 91 98 98 98 101 100 96 93 88 94 100 86 71 70 56 91 82 60 114 87 69 31 53 44 52 90 149 165 184 259 87
135 133 138 142 140 138 139 130 90 82 92 116 107 98 92 89 64 64 90 82 88 92 96 100 99 99 97 96 95 97 95 85 86 85 82 79 81 91 113 99 95 104 131 43 39 38 56 64 58 104 119 142